H1 CPF 2 NER 2026 4 11 9 101 01 glonass129 H2 1106402 9129 37868 2026 4 11 0 0 0 2026 4 14 23 45 0 900 1 1 0 0 0 1 H9 10 0 61141 0.00000 0 -11482118.653 1692445.667 -22672948.611 10 0 61141 900.00000 0 -13138934.626 -512814.151 -21820206.608 10 0 61141 1800.00000 0 -14870541.138 -2487575.423 -20542097.109 10 0 61141 2700.00000 0 -16618101.355 -4195853.885 -18863778.201 10 0 61141 3600.00000 0 -18318659.586 -5613769.738 -16818189.070 10 0 61141 4500.00000 0 -19907737.871 -6730274.606 -14445385.142 10 0 61141 5400.00000 0 -21322010.219 -7547333.467 -11791736.228 10 0 61141 6300.00000 0 -22501941.609 -8079557.383 -8909004.852 10 0 61141 7200.00000 0 -23394280.908 -8353306.049 -5853324.136 10 0 61141 8100.00000 0 -23954303.582 -8405301.374 -2684096.308 10 0 61141 9000.00000 0 -24147711.215 -8280813.573 537165.916 10 0 61141 9900.00000 0 -23952109.617 -8031498.627 3748032.038 10 0 61141 10800.00000 0 -23358005.440 -7712980.023 6886357.396 10 0 61141 11700.00000 0 -22369281.416 -7382277.531 9891474.801 10 0 61141 12600.00000 0 -21003132.112 -7095191.485 12705351.941 10 0 61141 13500.00000 0 -19289464.321 -6903752.025 15273693.551 10 0 61141 14400.00000 0 -17269787.937 -6853839.476 17546968.724 10 0 61141 15300.00000 0 -14995643.758 -6983074.376 19481345.448 10 0 61141 16200.00000 0 -12526633.053 -7319064.240 21039516.440 10 0 61141 17100.00000 0 -9928129.453 -7878079.293 22191402.305 10 0 61141 18000.00000 0 -7268766.191 -8664211.896 22914720.245 10 0 61141 18900.00000 0 -4617800.471 -9669054.739 23195408.676 10 0 61141 19800.00000 0 -2042461.471 -10871911.975 23027900.362 10 0 61141 20700.00000 0 394610.782 -12240536.017 22415238.934 10 0 61141 21600.00000 0 2637731.937 -13732361.413 21369035.966 10 0 61141 22500.00000 0 4640249.055 -15296187.038 19909268.204 10 0 61141 23400.00000 0 6366240.615 -16874239.277 18063917.034 10 0 61141 24300.00000 0 7791770.636 -18404532.854 15868454.929 10 0 61141 25200.00000 0 8905644.497 -19823433.059 13365186.267 10 0 61141 26100.00000 0 9709634.060 -21068313.874 10602452.854 10 0 61141 27000.00000 0 10218161.428 -22080201.492 7633717.233 10 0 61141 27900.00000 0 10457453.150 -22806292.212 4516539.724 10 0 61141 28800.00000 0 10464199.019 -23202237.780 1311467.812 10 0 61141 29700.00000 0 10283770.934 -23234100.112 -1919141.051 10 0 61141 30600.00000 0 9968076.452 -22879890.432 -5112340.212 10 0 61141 31500.00000 0 9573137.940 -22130624.964 -8205833.405 10 0 61141 32400.00000 0 9156500.694 -20990849.610 -11139207.577 10 0 61141 33300.00000 0 8774581.386 -19478608.643 -13855132.982 10 0 61141 34200.00000 0 8480071.365 -17624856.435 -16300504.965 10 0 61141 35100.00000 0 8319507.341 -15472335.371 -18427502.950 10 0 61141 36000.00000 0 8331114.988 -13073966.307 -20194543.952 10 0 61141 36900.00000 0 8543019.213 -10490819.220 -21567110.234 10 0 61141 37800.00000 0 8971898.915 -7789749.816 -22518433.705 10 0 61141 38700.00000 0 9622144.577 -5040802.269 -23030022.916 10 0 61141 39600.00000 0 10485555.147 -2314488.193 -23092022.120 10 0 61141 40500.00000 0 11541587.074 320943.075 -22703395.646 10 0 61141 41400.00000 0 12758144.522 2802127.870 -21871934.711 10 0 61141 42300.00000 0 14092876.305 5072995.205 -20614087.591 10 0 61141 43200.00000 0 15494923.502 7086857.187 -18954617.845 10 0 61141 44100.00000 0 16907042.489 8808096.629 -16926098.778 10 0 61141 45000.00000 0 18268012.406 10213383.192 -14568255.647 10 0 61141 45900.00000 0 19515224.318 11292369.835 -11927170.110 10 0 61141 46800.00000 0 20587342.126 12047843.617 -9054363.960 10 0 61141 47700.00000 0 21426922.767 12495328.032 -6005781.439 10 0 61141 48600.00000 0 21982885.546 12662157.180 -2840691.139 10 0 61141 49500.00000 0 22212727.461 12586064.052 379470.322 10 0 61141 50400.00000 0 22084392.501 12313345.225 3592289.818 10 0 61141 51300.00000 0 21577717.984 11896681.422 6735581.287 10 0 61141 52200.00000 0 20685398.896 11392707.124 9748578.418 10 0 61141 53100.00000 0 19413431.487 10859432.082 12573094.204 10 0 61141 54000.00000 0 17781018.944 10353622.972 15154626.252 10 0 61141 54900.00000 0 15819944.010 9928254.360 17443388.190 10 0 61141 55800.00000 0 13573435.008 9630134.620 19395249.158 10 0 61141 56700.00000 0 11094572.083 9497804.799 20972565.314 10 0 61141 57600.00000 0 8444298.727 9559796.921 22144889.344 10 0 61141 58500.00000 0 5689119.297 9833323.363 22889546.007 10 0 61141 59400.00000 0 2898575.617 10323451.464 23192064.029 10 0 61141 60300.00000 0 142604.405 11022797.825 23046456.812 10 0 61141 61200.00000 0 -2511117.800 11911755.919 22455346.702 10 0 61141 62100.00000 0 -4999734.976 12959249.020 21429929.908 10 0 61141 63000.00000 0 -7267573.398 14123979.226 19989781.514 10 0 61141 63900.00000 0 -9268208.515 15356122.946 18162502.578 10 0 61141 64800.00000 0 -10966152.038 16599404.671 15983213.893 10 0 61141 65700.00000 0 -12338089.190 17793464.770 13493903.712 10 0 61141 66600.00000 0 -13373613.941 18876424.081 10742639.580 10 0 61141 67500.00000 0 -14075430.414 19787538.989 7782657.243 10 0 61141 68400.00000 0 -14459010.562 20469835.774 4671342.435 10 0 61141 69300.00000 0 -14551720.915 20872612.785 1469124.045 10 0 61141 70200.00000 0 -14391453.822 20953703.443 -1761700.409 10 0 61141 71100.00000 0 -14024819.954 20681402.317 -4958184.008 10 0 61141 72000.00000 0 -13504978.081 20035970.076 -8057969.717 10 0 61141 72900.00000 0 -12889194.321 19010650.628 -11000524.146 10 0 61141 73800.00000 0 -12236235.238 17612154.396 -13728339.847 10 0 61141 74700.00000 0 -11603706.957 15860584.535 -16188080.490 10 0 61141 75600.00000 0 -11045455.142 13788807.036 -18331644.428 10 0 61141 76500.00000 0 -10609138.345 11441289.697 -20117123.829 10 0 61141 77400.00000 0 -10334079.787 8872458.157 -21509638.908 10 0 61141 78300.00000 0 -10249490.522 6144638.045 -22482029.668 10 0 61141 79200.00000 0 -10373140.648 3325670.211 -23015390.867 10 0 61141 80100.00000 0 -10710535.627 486299.994 -23099439.459 10 0 61141 81000.00000 0 -11254632.663 -2302549.077 -22732707.604 10 0 61141 81900.00000 0 -11986108.615 -4972502.118 -21922558.142 10 0 61141 82800.00000 0 -12874166.986 -7460345.656 -20685023.307 10 0 61141 83700.00000 0 -13877848.384 -9710417.095 -19044471.169 10 0 61141 84600.00000 0 -14947787.318 -11676671.729 -17033107.843 10 0 61141 85500.00000 0 -16028339.351 -13324342.294 -14690326.816 10 0 61142 0.00000 0 -17059987.039 -14631123.749 -12061919.996 10 0 61142 900.00000 0 -17981922.369 -15587837.150 -9199165.937 10 0 61142 1800.00000 0 -18734694.460 -16198546.381 -6157818.060 10 0 61142 2700.00000 0 -19262812.428 -16480128.688 -2997009.048 10 0 61142 3600.00000 0 -19517192.533 -16461318.682 221902.934 10 0 61142 4500.00000 0 -19457347.891 -16181269.852 3436524.585 10 0 61142 5400.00000 0 -19053229.710 -15687696.579 6584630.980 10 0 61142 6300.00000 0 -18286644.144 -15034676.607 9605359.307 10 0 61142 7200.00000 0 -17152186.788 -14280207.432 12440370.519 10 0 61142 8100.00000 0 -15657657.073 -13483619.479 15034957.742 10 0 61142 9000.00000 0 -13823936.182 -12702954.127 17339081.710 10 0 61142 9900.00000 0 -11684334.045 -11992415.380 19308315.110 10 0 61142 10800.00000 0 -9283432.393 -11400000.373 20904679.704 10 0 61142 11700.00000 0 -6675470.990 -10965406.160 22097362.104 10 0 61142 12600.00000 0 -3922342.378 -10718298.702 22863296.129 10 0 61142 13500.00000 0 -1091276.004 -10677015.161 23187601.948 10 0 61142 14400.00000 0 1747695.103 -10847753.030 23063874.351 10 0 61142 15300.00000 0 4524383.107 -11224280.042 22494314.800 10 0 61142 16200.00000 0 7171102.822 -11788177.805 21489704.186 10 0 61142 17100.00000 0 9625230.356 -12509610.532 20069215.656 10 0 61142 18000.00000 0 11831558.846 -13348588.849 18260069.335 10 0 61142 18900.00000 0 13744354.815 -14256678.184 16097033.400 10 0 61142 19800.00000 0 15329030.160 -15179082.663 13621778.678 10 0 61142 20700.00000 0 16563359.792 -16057019.197 10882096.771 10 0 61142 21600.00000 0 17438193.147 -16830283.662 7930994.567 10 0 61142 22500.00000 0 17957628.381 -17439901.985 4825680.779 10 0 61142 23400.00000 0 18138640.216 -17830754.351 1626462.934 10 0 61142 24300.00000 0 18010175.510 -17954060.712 -1604424.385 10 0 61142 25200.00000 0 17611753.286 -17769620.744 -4804037.151 10 0 61142 26100.00000 0 16991627.496 -17247710.921 -7909960.771 10 0 61142 27000.00000 0 16204590.003 -16370555.453 -10861544.704 10 0 61142 27900.00000 0 15309507.257 -15133305.634 -13601106.863 10 0 61142 28800.00000 0 14366696.164 -13544483.180 -16075082.148 10 0 61142 29700.00000 0 13435251.986 -11625866.135 -18235090.519 10 0 61142 30600.00000 0 12570443.470 -9411820.105 -20038901.700 10 0 61142 31500.00000 0 11821287.605 -6948101.691 -21451275.925 10 0 61142 32400.00000 0 11228408.561 -4290183.874 -22444662.985 10 0 61142 33300.00000 0 10822272.873 -1501173.805 -22999745.119 10 0 61142 34200.00000 0 10621876.411 1350589.031 -23105812.828 10 0 61142 35100.00000 0 10633938.817 4194152.696 -22760966.509 10 0 61142 36000.00000 0 10852638.941 6958680.137 -21972140.619 10 0 61142 36900.00000 0 11259901.267 9576169.075 -20754950.955 10 0 61142 37800.00000 0 11826219.549 11984050.376 -19133369.339 10 0 61142 38700.00000 0 12511980.799 14127556.543 -17139233.591 10 0 61142 39600.00000 0 13269231.533 15961762.170 -14811603.993 10 0 61142 40500.00000 0 14043809.535 17453212.701 -12195980.433 10 0 61142 41400.00000 0 14777749.275 18581075.649 -9343397.076 10 0 61142 42300.00000 0 15411857.947 19337768.922 -6309413.664 10 0 61142 43200.00000 0 15888352.515 19729043.174 -3153024.289 10 0 61142 44100.00000 0 16153446.212 19773518.119 64494.236 10 0 61142 45000.00000 0 16159775.708 19501695.443 3280771.469 10 0 61142 45900.00000 0 15868567.533 18954492.659 6433546.704 10 0 61142 46800.00000 0 15251453.753 18181361.676 9461863.670 10 0 61142 47700.00000 0 14291861.970 17238072.549 12307234.217 10 0 61142 48600.00000 0 12985922.665 16184256.060 14914749.769 10 0 61142 49500.00000 0 11342856.932 15080807.982 17234120.741 10 0 61142 50400.00000 0 9384829.011 13987262.858 19220625.723 10 0 61142 51300.00000 0 7146269.730 12959245.731 20835954.192 10 0 61142 52200.00000 0 4672698.277 12046106.567 22048928.514 10 0 61142 53100.00000 0 2019089.787 11288834.297 22836093.082 10 0 61142 54000.00000 0 -752145.657 10718335.910 23182160.653 10 0 61142 54900.00000 0 -3573491.529 10354151.109 23080308.145 10 0 61142 55800.00000 0 -6374867.361 10203655.575 22532316.395 10 0 61142 56700.00000 0 -9086283.012 10261786.192 21548550.745 10 0 61142 57600.00000 0 -11640497.555 10511300.518 20147781.632 10 0 61142 58500.00000 0 -13975574.903 10923561.217 18356846.954 10 0 61142 59400.00000 0 -16037231.772 11459814.565 16210160.494 10 0 61142 60300.00000 0 -17780881.252 12072911.684 13749073.459 10 0 61142 61200.00000 0 -19173286.907 12709402.401 11021098.992 10 0 61142 62100.00000 0 -20193757.594 13311915.479 8079012.371 10 0 61142 63000.00000 0 -20834831.701 13821726.166 4979842.405 10 0 61142 63900.00000 0 -21102420.323 14181403.096 1783772.315 10 0 61142 64800.00000 0 -21015401.511 14337422.200 -1447029.210 10 0 61142 65700.00000 0 -20604680.937 14242635.646 -4649623.964 10 0 61142 66600.00000 0 -19911757.296 13858489.064 -7761542.679 10 0 61142 67500.00000 0 -18986852.306 13156890.356 -10722020.449 10 0 61142 68400.00000 0 -17886684.316 12121647.808 -13473203.206 10 0 61142 69300.00000 0 -16671980.411 10749413.455 -15961299.537 10 0 61142 70200.00000 0 -15404833.528 9050088.834 -18137653.198 10 0 61142 71100.00000 0 -14146018.118 7046673.511 -19959713.340 10 0 61142 72000.00000 0 -12952379.821 4774560.955 -21391881.720 10 0 61142 72900.00000 0 -11874411.334 2280310.298 -22406219.028 10 0 61142 73800.00000 0 -10954118.449 -380054.745 -22982995.693 10 0 61142 74700.00000 0 -10223267.392 -3143148.110 -23111076.068 10 0 61142 75600.00000 0 -9702087.797 -5940635.933 -22788128.701 10 0 61142 76500.00000 0 -9398485.601 -8701861.378 -22020659.205 10 0 61142 77400.00000 0 -9307797.975 -11356568.921 -20823866.112 10 0 61142 78300.00000 0 -9413098.818 -13837613.526 -19221323.844 10 0 61142 79200.00000 0 -9686039.678 -16083541.211 -17244500.499 10 0 61142 80100.00000 0 -10088188.088 -18040933.432 -14932121.483 10 0 61142 81000.00000 0 -10572804.233 -19666418.336 -12329393.087 10 0 61142 81900.00000 0 -11086978.547 -20928266.467 -9487102.674 10 0 61142 82800.00000 0 -11574037.928 -21807506.458 -6460614.537 10 0 61142 83700.00000 0 -11976117.475 -22298516.836 -3308782.150 10 0 61142 84600.00000 0 -12236788.275 -22409072.244 -92798.916 10 0 61142 85500.00000 0 -12303630.139 -22159845.254 3124989.670 10 0 61143 0.00000 0 -12130641.173 -21583387.688 6282288.995 10 0 61143 900.00000 0 -11680383.403 -20722636.249 9318052.124 10 0 61143 1800.00000 0 -10925775.659 -19629007.790 12173643.810 10 0 61143 2700.00000 0 -9851459.348 -18360164.025 14793956.101 10 0 61143 3600.00000 0 -8454681.188 -16977540.209 17128451.413 10 0 61143 4500.00000 0 -6745656.668 -15543740.309 19132116.473 10 0 61143 5400.00000 0 -4747399.295 -14119906.297 20766310.559 10 0 61143 6300.00000 0 -2495022.270 -12763169.652 21999493.675 10 0 61143 7200.00000 0 -34540.463 -11524289.345 22807822.403 10 0 61143 8100.00000 0 2578779.464 -10445572.813 23175603.419 10 0 61143 9000.00000 0 5282454.897 -9559164.799 23095596.780 10 0 61143 9900.00000 0 8009127.555 -8885774.164 22569163.403 10 0 61143 10800.00000 0 10689114.384 -8433891.150 21606253.458 10 0 61143 11700.00000 0 13253066.351 -8199527.899 20225234.744 10 0 61143 12600.00000 0 15634627.487 -8166493.937 18452562.679 10 0 61143 13500.00000 0 17772985.805 -8307196.541 16322296.055 10 0 61143 14400.00000 0 19615211.322 -8583934.303 13875465.496 10 0 61143 15300.00000 0 21118284.115 -8950631.595 11159304.316 10 0 61143 16200.00000 0 22250727.328 -9354942.821 8226354.390 10 0 61143 17100.00000 0 22993775.599 -9740639.205 5133462.401 10 0 61143 18000.00000 0 23342028.171 -10050178.124 1940684.641 10 0 61143 18900.00000 0 23303557.211 -10227346.318 -1289879.051 10 0 61143 19800.00000 0 22899464.736 -10219864.132 -4495299.485 10 0 61143 20700.00000 0 22162905.048 -9981838.712 -7613056.031 10 0 61143 21600.00000 0 21137612.665 -9475959.689 -10582272.741 10 0 61143 22500.00000 0 19875997.307 -8675341.325 -13344926.792 10 0 61143 23400.00000 0 18436886.560 -7564929.927 -15847003.506 10 0 61143 24300.00000 0 16883012.407 -6142413.819 -18039573.256 10 0 61143 25200.00000 0 15278349.148 -4418594.629 -19879767.167 10 0 61143 26100.00000 0 13685416.882 -2417202.001 -21331630.759 10 0 61143 27000.00000 0 12162666.098 -174157.987 -22366837.515 10 0 61143 27900.00000 0 10762055.336 2263678.747 -22965247.570 10 0 61143 28800.00000 0 9526925.196 4840236.196 -23115300.242 10 0 61143 29700.00000 0 8490258.836 7492347.048 -22814232.912 10 0 61143 30600.00000 0 7673402.017 10152171.837 -22068122.599 10 0 61143 31500.00000 0 7085295.630 12749824.756 -20891750.393 10 0 61143 32400.00000 0 6722251.318 15216091.305 -19308292.726 10 0 61143 33300.00000 0 6568277.300 17485123.491 -17348846.968 10 0 61143 34200.00000 0 6595937.946 19496999.674 -15051802.269 10 0 61143 35100.00000 0 6767707.905 21200042.419 -12462069.557 10 0 61143 36000.00000 0 7037760.798 22552798.527 -9630187.277 10 0 61143 36900.00000 0 7354114.378 23525600.074 -6611321.823 10 0 61143 37800.00000 0 7661039.468 24101643.446 -3464183.313 10 0 61143 38700.00000 0 7901629.485 24277543.868 -249878.787 10 0 61143 39600.00000 0 8020421.260 24063345.087 2969274.320 10 0 61143 40500.00000 0 7965956.457 23481986.668 6130951.203 10 0 61143 41400.00000 0 7693176.069 22568253.757 9174016.261 10 0 61143 42300.00000 0 7165548.110 21367255.332 12039690.756 10 0 61143 43200.00000 0 6356840.193 19932495.950 14672670.241 10 0 61143 44100.00000 0 5252463.783 18323622.192 17022171.810 10 0 61143 45000.00000 0 3850334.740 16603937.664 19042892.787 10 0 61143 45900.00000 0 2161214.704 14837789.247 20695864.459 10 0 61143 46800.00000 0 208518.931 13087931.918 21949186.389 10 0 61143 47700.00000 0 -1972402.253 11412979.910 22778628.965 10 0 61143 48600.00000 0 -4335480.036 9865048.094 23168094.027 10 0 61143 49500.00000 0 -6825593.540 8487679.644 23109925.605 10 0 61143 50400.00000 0 -9380619.628 7314144.523 22605065.067 10 0 61143 51300.00000 0 -11933784.189 6366178.406 21663047.264 10 0 61143 52200.00000 0 -14416220.492 5653214.088 20301836.672 10 0 61143 53100.00000 0 -16759631.250 5172137.668 18547504.986 10 0 61143 54000.00000 0 -18898946.193 4907580.551 16433754.248 10 0 61143 54900.00000 0 -20774866.216 4832736.482 14001292.261 10 0 61143 55800.00000 0 -22336188.820 4910671.031 11297069.891 10 0 61143 56700.00000 0 -23541817.637 5096070.258 8373392.702 10 0 61143 57600.00000 0 -24362370.981 5337356.433 5286922.158 10 0 61143 58500.00000 0 -24781320.284 5579082.516 2097584.441 10 0 61143 59400.00000 0 -24795608.515 5764504.543 -1132592.655 10 0 61143 60300.00000 0 -24415720.210 5838222.486 -4340692.123 10 0 61143 61200.00000 0 -23665198.003 5748776.382 -7464145.055 10 0 61143 62100.00000 0 -22579624.251 5451085.546 -10441967.443 10 0 61143 63000.00000 0 -21205109.510 4908624.755 -13215970.534 10 0 61143 63900.00000 0 -19596351.225 4095242.118 -15731919.007 10 0 61143 64800.00000 0 -17814344.817 2996538.514 -17940612.179 10 0 61143 65700.00000 0 -15923844.671 1610747.272 -19798865.105 10 0 61143 66600.00000 0 -13990683.501 -50925.554 -21270368.580 10 0 61143 67500.00000 0 -12079064.708 -1964516.574 -22326409.895 10 0 61143 68400.00000 0 -10248943.327 -4094068.243 -22946439.379 10 0 61143 69300.00000 0 -8553607.138 -6392908.161 -23118471.286 10 0 61143 70200.00000 0 -7037560.437 -8805390.581 -22839311.318 10 0 61143 71100.00000 0 -5734799.508 -11269026.366 -22114606.931 10 0 61143 72000.00000 0 -4667551.623 -13716911.090 -20958720.430 10 0 61143 72900.00000 0 -3845529.024 -16080348.483 -19394428.585 10 0 61143 73800.00000 0 -3265727.073 -18291558.470 -17452456.128 10 0 61143 74700.00000 0 -2912772.247 -20286355.770 -15170853.871 10 0 61143 75600.00000 0 -2759802.223 -22006686.878 -12594235.203 10 0 61143 76500.00000 0 -2769837.724 -23402919.720 -9772887.457 10 0 61143 77400.00000 0 -2897585.219 -24435791.210 -6761776.956 10 0 61143 78300.00000 0 -3091591.747 -25077932.914 -3619468.373 10 0 61143 79200.00000 0 -3296658.796 -25314913.111 -406980.360 10 0 61143 80100.00000 0 -3456411.962 -25145754.140 2813399.645 10 0 61143 81000.00000 0 -3515917.240 -24582905.986 5979318.269 10 0 61143 81900.00000 0 -3424233.680 -23651679.690 9029553.685 10 0 61143 82800.00000 0 -3136795.426 -22389166.418 11905185.242 10 0 61143 83700.00000 0 -2617523.927 -20842688.932 14550713.849 10 0 61143 84600.00000 0 -1840582.795 -19067850.935 16915113.094 10 0 61143 85500.00000 0 -791702.788 -17126265.750 18952792.641 10 0 61144 0.00000 0 530977.589 -15083058.412 20624457.274 10 0 61144 900.00000 0 2116591.470 -13004242.605 21897847.876 10 0 61144 1800.00000 0 3941754.964 -10954082.345 22748349.726 10 0 61144 2700.00000 0 5971305.102 -8992542.137 23159460.852 10 0 61144 3600.00000 0 8159533.920 -7172931.947 23123110.042 10 0 61144 4500.00000 0 10451870.519 -5539841.635 22639819.646 10 0 61144 5400.00000 0 12786944.076 -4127449.213 21718709.491 10 0 61144 6300.00000 0 15098945.256 -2958272.208 20377340.771 10 0 61144 7200.00000 0 17320190.896 -2042413.787 18641401.261 10 0 61144 8100.00000 0 19383787.931 -1377335.413 16544235.782 10 0 61144 9000.00000 0 21226287.651 -948166.476 14126228.556 10 0 61144 9900.00000 0 22790220.711 -728539.310 11434046.918 10 0 61144 10800.00000 0 24026407.257 -681916.151 8519758.671 10 0 61144 11700.00000 0 24895944.762 -763353.691 5439838.238 10 0 61144 12600.00000 0 25371788.741 -921632.048 2254079.487 10 0 61144 13500.00000 0 25439857.795 -1101658.825 -975564.379 10 0 61144 14400.00000 0 25099614.076 -1247046.448 -4186191.348 10 0 61144 15300.00000 0 24364092.169 -1302752.718 -7315187.230 10 0 61144 16200.00000 0 23259372.942 -1217670.926 -10301463.018 10 0 61144 17100.00000 0 21823522.746 -947057.388 -13086667.065 10 0 61144 18000.00000 0 20105041.636 -454690.648 -15616346.310 10 0 61144 18900.00000 0 18160885.700 285332.171 -17841031.756 10 0 61144 19800.00000 0 16054147.221 1287240.886 -19717224.916 10 0 61144 20700.00000 0 13851491.397 2552739.585 -21208264.149 10 0 61144 21600.00000 0 11620458.873 4070693.924 -22285052.588 10 0 61144 22500.00000 0 9426749.045 5817373.045 -22926632.507 10 0 61144 23400.00000 0 7331599.691 7757236.699 -23120594.507 10 0 61144 24300.00000 0 5389373.968 9844234.497 -22863313.647 10 0 61144 25200.00000 0 3645456.409 12023562.203 -22160008.446 10 0 61144 26100.00000 0 2134545.899 14233800.366 -21024622.590 10 0 61144 27000.00000 0 879416.042 16409344.394 -19479532.894 10 0 61144 27900.00000 0 -109807.009 18483023.040 -17555090.701 10 0 61144 28800.00000 0 -835821.554 20388794.524 -15289007.273 10 0 61144 29700.00000 0 -1313777.910 22064406.744 -12725596.827 10 0 61144 30600.00000 0 -1570375.592 23453910.031 -9914893.554 10 0 61144 31500.00000 0 -1642471.550 24509917.657 -6911661.340 10 0 61144 32400.00000 0 -1575261.243 25195520.512 -3774316.739 10 0 61144 33300.00000 0 -1420111.935 25485777.393 -563787.126 10 0 61144 34200.00000 0 -1232141.602 25368720.515 2657673.114 10 0 61144 35100.00000 0 -1067646.857 24845836.479 5827685.167 10 0 61144 36000.00000 0 -981488.823 23932004.813 8884944.111 10 0 61144 36900.00000 0 -1024546.899 22654898.782 11770390.447 10 0 61144 37800.00000 0 -1241346.843 21053875.109 14428333.387 10 0 61144 38700.00000 0 -1667961.719 19178399.959 16807505.798 10 0 61144 39600.00000 0 -2330272.634 17086077.072 18862032.273 10 0 61144 40500.00000 0 -3242660.999 14840359.659 20552293.728 10 0 61144 41400.00000 0 -4407186.396 12508039.910 21845673.882 10 0 61144 42300.00000 0 -5813284.221 10156618.618 22717175.060 10 0 61144 43200.00000 0 -7437996.382 7851661.783 23149892.964 10 0 61144 44100.00000 0 -9246726.780 5654251.412 23135342.225 10 0 61144 45000.00000 0 -11194492.228 3618633.899 22673626.800 10 0 61144 45900.00000 0 -13227619.398 1790161.492 21773451.603 10 0 61144 46800.00000 0 -15285820.227 203610.781 20451974.113 10 0 61144 47700.00000 0 -17304562.409 -1118052.739 18734497.171 10 0 61144 48600.00000 0 -19217639.127 -2164412.774 16654006.804 10 0 61144 49500.00000 0 -20959833.184 -2937811.704 14250561.557 10 0 61144 50400.00000 0 -22469565.832 -3453021.613 11570542.676 10 0 61144 51300.00000 0 -23691420.214 -3736389.284 8665777.284 10 0 61144 52200.00000 0 -24578433.415 -3824489.598 5592549.569 10 0 61144 53100.00000 0 -25094059.688 -3762342.740 2410517.722 10 0 61144 54000.00000 0 -25213720.412 -3601269.535 -818443.093 10 0 61144 54900.00000 0 -24925873.033 -3396475.330 -4031449.316 10 0 61144 55800.00000 0 -24232551.211 -3204465.158 -7165844.901 10 0 61144 56700.00000 0 -23149350.759 -3080400.964 -10160439.163 10 0 61144 57600.00000 0 -21704859.649 -3075514.871 -12956720.739 10 0 61144 58500.00000 0 -19939554.400 -3234690.668 -15500021.803 10 0 61144 59400.00000 0 -17904208.399 -3594318.824 -17740607.704 10 0 61144 60300.00000 0 -15657878.957 -4180518.786 -19634668.670 10 0 61144 61200.00000 0 -13265558.325 -5007806.463 -21145192.384 10 0 61144 62100.00000 0 -10795588.456 -6078265.495 -22242698.984 10 0 61144 63000.00000 0 -8316949.405 -7381258.960 -22905823.218 10 0 61144 63900.00000 0 -5896536.598 -8893694.657 -23121731.924 10 0 61144 64800.00000 0 -3596542.237 -10580833.050 -22886368.786 10 0 61144 65700.00000 0 -1472051.292 -12397603.502 -22204522.110 10 0 61144 66600.00000 0 431047.186 -14290372.559 -21089715.219 10 0 61144 67500.00000 0 2077746.696 -16199088.758 -19563922.856 10 0 61144 68400.00000 0 3445138.755 -18059712.528 -17657120.564 10 0 61144 69300.00000 0 4523108.579 -19806827.884 -15406677.461 10 0 61144 70200.00000 0 5314484.736 -21376325.301 -12856605.892 10 0 61144 71100.00000 0 5834639.894 -22708042.604 -10056684.169 10 0 61144 72000.00000 0 6110562.976 -23748253.026 -7061471.039 10 0 61144 72900.00000 0 6179445.261 -24451896.604 -3929232.326 10 0 61144 73800.00000 0 6086843.080 -24784462.447 -720801.642 10 0 61144 74700.00000 0 5884497.076 -24723444.530 2501601.999 10 0 61144 75600.00000 0 5627901.790 -24259311.932 5675576.499 10 0 61144 76500.00000 0 5373729.019 -23395954.918 8739735.816 10 0 61144 77400.00000 0 5177213.753 -22150590.164 11634883.403 10 0 61144 78300.00000 0 5089612.259 -20553130.698 14305138.391 10 0 61144 79200.00000 0 5155838.234 -18645047.955 16698994.355 10 0 61144 80100.00000 0 5412374.997 -16477773.829 18770292.047 10 0 61144 81000.00000 0 5885549.976 -14110708.903 20479089.392 10 0 61144 81900.00000 0 6590242.636 -11608918.566 21792414.025 10 0 61144 82800.00000 0 7529079.239 -9040610.936 22684885.689 10 0 61144 83700.00000 0 8692148.082 -6474498.946 23139198.064 10 0 61144 84600.00000 0 10057247.858 -3977153.353 23146451.695 10 0 61144 85500.00000 0 11590660.307 -1610453.797 22706332.021 99